Location: Mentone
(34.5413°N, 85.5351°W)
Time: 05:56:40
(UTC-06:00)

Vanguard 3 - All Passes

Search period start: 20 January 2017 00:00
Search period end: 30 January 2017 00:00
Orbit: 508 x 3265 km, 33.3° (Epoch: 20 January)

Date Brightness Start Highest point End Pass type
(mag) Time Alt. Az. Time Alt. Az. Time Alt. Az.
20 Jan - 10:32:16 10° S 10:41:31 16° SE 10:49:14 10° ESE daylight
20 Jan - 12:41:38 10° SW 12:56:24 39° SSE 13:05:43 10° E daylight
20 Jan - 14:57:11 10° WSW 15:10:20 69° SSE 15:17:29 10° E daylight
20 Jan - 17:14:01 10° W 17:23:04 82° S 17:28:12 10° E visible
20 Jan - 19:29:19 10° W 19:34:33 37° SSW 19:38:15 10° SE visible
21 Jan - 11:26:40 10° SSW 11:41:04 30° SSE 11:51:19 10° E daylight
21 Jan - 13:40:27 10° SW 13:55:40 57° SSE 14:04:23 10° E daylight
21 Jan - 15:57:28 10° W 16:09:09 82° S 16:15:28 10° E daylight
21 Jan - 18:13:55 10° W 18:21:25 63° SSW 18:25:56 10° ESE visible
21 Jan - 20:29:31 10° WSW 20:32:05 15° SW 20:34:20 10° S visible
22 Jan - 10:13:18 10° S 10:25:28 21° SE 10:35:22 10° ESE daylight
22 Jan - 12:24:12 10° SW 12:40:32 46° SSE 12:50:49 10° E daylight
22 Jan - 14:40:27 10° WSW 14:54:47 75° SSE 15:02:34 10° E daylight
22 Jan - 16:57:50 10° W 17:07:50 80° S 17:13:21 10° E daylight
22 Jan - 19:13:41 10° W 19:19:19 33° SSW 19:23:09 10° SE visible
23 Jan - 09:03:53 10° SSE 09:09:45 12° SE 09:15:15 10° ESE daylight
23 Jan - 11:08:53 10° SSW 11:24:59 36° SSE 11:36:30 10° E daylight
23 Jan - 13:23:25 10° WSW 13:39:54 64° SSE 13:49:23 10° E daylight
23 Jan - 15:41:00 10° W 15:53:45 84° S 16:00:36 10° E daylight
23 Jan - 17:57:55 10° W 18:06:11 59° SSW 18:11:01 10° ESE visible
23 Jan - 20:14:39 10° WSW 20:16:42 12° SW 20:18:30 10° SSW visible
24 Jan - 09:55:00 10° S 10:09:15 26° SE 10:20:52 10° E daylight
24 Jan - 12:06:54 10° SW 12:24:31 53° SSE 12:35:46 10° E daylight
24 Jan - 14:23:42 10° WSW 14:39:09 79° S 14:47:37 10° E daylight
24 Jan - 16:41:32 10° W 16:52:31 78° S 16:58:30 10° ESE daylight
24 Jan - 18:57:58 10° W 19:03:59 30° SW 19:08:01 10° SSE visible
25 Jan - 08:43:44 10° SSE 08:53:31 16° SE 09:02:31 10° ESE daylight
25 Jan - 10:51:21 10° SSW 11:08:46 41° SSE 11:21:26 10° E daylight
25 Jan - 13:06:26 10° WSW 13:24:01 70° SSE 13:34:20 10° E daylight
25 Jan - 15:24:27 10° W 15:38:16 85° S 15:45:41 10° E daylight
25 Jan - 17:41:49 10° W 17:50:51 54° SSW 17:56:04 10° SE visible
25 Jan - 20:00:10 10° WSW 20:01:13 11° SW 20:02:13 10° SSW visible
26 Jan - 09:37:10 10° SSW 09:52:52 30° SE 10:05:58 10° E daylight
26 Jan - 11:49:45 10° SW 12:08:22 59° SSE 12:20:36 10° E daylight
26 Jan - 14:06:57 10° WSW 14:23:26 83° S 14:32:36 10° E daylight
26 Jan - 16:25:08 10° W 16:37:07 75° SSW 16:43:35 10° ESE daylight
26 Jan - 18:42:11 10° W 18:48:33 27° SW 18:52:48 10° SSE visible
27 Jan - 08:25:03 10° S 08:37:06 20° SE 08:48:23 10° E daylight
27 Jan - 10:34:03 10° SW 10:52:24 47° SSE 11:06:12 10° E daylight
27 Jan - 12:49:32 10° WSW 13:08:01 75° SSE 13:19:11 10° E daylight
27 Jan - 15:07:50 10° W 15:22:42 84° S 15:30:45 10° E daylight
27 Jan - 17:25:35 10° W 17:35:26 50° SSW 17:41:04 10° SE visible
28 Jan - 09:19:40 10° SSW 09:36:22 35° SE 09:50:46 10° E daylight
28 Jan - 11:32:44 10° SW 11:52:06 65° SSE 12:05:18 10° E daylight
28 Jan - 13:50:12 10° W 14:07:37 85° S 14:17:33 10° E daylight
28 Jan - 16:08:39 10° W 16:21:38 72° SSW 16:28:39 10° ESE daylight
28 Jan - 18:26:18 10° W 18:33:01 25° SW 18:37:32 10° SSE visible
29 Jan - 08:07:05 10° S 08:20:33 24° SE 08:33:34 10° E daylight
29 Jan - 10:16:58 10° SW 10:35:54 53° SSE 10:50:48 10° E daylight
29 Jan - 12:32:42 10° WSW 12:51:56 79° SSE 13:03:59 10° E daylight
29 Jan - 14:51:11 10° W 15:07:03 83° S 15:15:45 10° E daylight
29 Jan - 17:09:16 10° W 17:19:54 46° SSW 17:25:59 10° SE daylight
